Weather History for KPTW - February, 2013

Change the Weather History Date:

Sunday, February 17, 2013

  Actual Average (KRDG) Record (KRDG)
Temperature  
Mean Temperature 26 °F 32 °F  
Max Temperature 32 °F 42 °F 64 °F (1976)
Min Temperature 19 °F 23 °F 0 °F (1979)
Degree Days  
Heating Degree Days 38 32  
Month to date heating degree days 578  
Since 1 July heating degree days 3703  
Cooling Degree Days 0 0  
Month to date cooling degree days 0  
Year to date cooling degree days 0  
Moisture  
Dew Point 8 °F    
Average Humidity 48    
Maximum Humidity 75    
Minimum Humidity 35    
Precipitation  
Precipitation 0.00 in 0.10 in 1.22 in (1910)
Month to date precipitation 1.49  
Year to date precipitation 4.54  
Sea Level Pressure  
Sea Level Pressure 29.88 in    
Wind  
Wind Speed 13 mph (NW)    
Max Wind Speed 21 mph    
Max Gust Speed 33 mph    
Visibility 9 miles    
Events Snow    
T = Trace of Precipitation, MM = Missing Value Source: NWS Daily Summary

Daily Weather History Graph

Daily Weather History Graph

Search for Another Location

Airport or City:

Trip Planner

Search our weather history database for the weather conditions in past years. The results will help you decide how hot, cold, wet, or windy it might be!

Date:

Astronomy

Feb. 17, 2013 Rise Set
Actual Time 6:52 AM EST 5:40 PM EST
Civil Twilight 6:24 AM EST 6:08 PM EST
Nautical Twilight 5:53 AM EST 6:39 PM EST
Astronomical Twilight 5:21 AM EST 7:11 PM EST
Moon 10:43 AM EST (2/17) 12:34 AM EST (2/17)
Length of Visible Light 11h 43m
Length of Day
10h 47m
Waxing Crescent, 49% of the Moon is Illuminated
Feb 17
Waxing Crescent
Feb 17
First Quarter
Feb 25
Full
Mar 4
Last Quarter
Mar 11
New

Hourly Weather History & Observations

Time (EST) Temp. Windchill Dew Point Humidity Pressure Visibility Wind Dir Wind Speed Gust Speed Precip Events Conditions
12:54 AM 28.9 °F 18.6 °F 9.0 °F 43% 29.79 in 10.0 mi NNW 12.7 mph - N/A   Overcast
1:54 AM 28.9 °F 19.2 °F 8.1 °F 41% 29.79 in 10.0 mi NNW 11.5 mph - N/A   Mostly Cloudy
2:54 AM 28.0 °F 18.1 °F 7.0 °F 41% 29.78 in 10.0 mi NNW 11.5 mph - N/A   Clear
3:54 AM 27.0 °F 17.3 °F 8.1 °F 45% 29.78 in 10.0 mi NNW 10.4 mph 19.6 mph N/A   Clear
4:54 AM 26.1 °F 16.2 °F 8.1 °F 47% 29.78 in 10.0 mi NW 10.4 mph - N/A   Clear
5:54 AM 25.0 °F 14.2 °F 8.1 °F 49% 29.79 in 10.0 mi NW 11.5 mph - N/A   Clear
6:54 AM 24.1 °F 13.1 °F 9.0 °F 53% 29.80 in 10.0 mi WNW 11.5 mph - N/A   Clear
7:54 AM 25.0 °F 15.5 °F 9.0 °F 51% 29.81 in 10.0 mi NW 9.2 mph 19.6 mph N/A   Clear
8:54 AM 27.0 °F 15.6 °F 12.0 °F 53% 29.81 in 10.0 mi NNW 13.8 mph 21.9 mph N/A   Clear
9:54 AM 27.0 °F 14.3 °F 12.9 °F 56% 29.83 in 10.0 mi NW 17.3 mph 20.7 mph N/A   Overcast
10:54 AM 28.9 °F 17.3 °F 10.9 °F 47% 29.84 in 10.0 mi NW 16.1 mph 21.9 mph N/A   Scattered Clouds
11:54 AM 28.9 °F 16.9 °F 9.0 °F 43% 29.84 in 10.0 mi NNW 17.3 mph 31.1 mph N/A   Mostly Cloudy
12:54 PM 30.9 °F 22.2 °F 12.9 °F 47% 29.84 in 10.0 mi WNW 10.4 mph 21.9 mph N/A   Overcast
1:54 PM 32.0 °F 21.6 °F 10.9 °F 42% 29.83 in 10.0 mi NNW 15.0 mph 27.6 mph N/A   Mostly Cloudy
2:54 PM 30.0 °F 17.2 °F 10.0 °F 43% 29.85 in 10.0 mi WNW 20.7 mph 33.4 mph N/A   Scattered Clouds
3:50 PM 26.6 °F 14.3 °F 15.8 °F 64% 29.86 in 1.5 mi WNW 16.1 mph 28.8 mph 0.00 in Snow Light Snow
3:54 PM 25.0 °F 14.2 °F 18.0 °F 75% 29.87 in 1.2 mi WNW 11.5 mph 28.8 mph 0.00 in Snow Light Snow
3:59 PM 26.6 °F 17.5 °F 17.6 °F 69% 29.86 in 3.0 mi WNW 9.2 mph 21.9 mph 0.00 in Snow Light Snow
4:54 PM 28.0 °F 14.9 °F 3.9 °F 36% 29.88 in 10.0 mi WNW 19.6 mph 32.2 mph 0.00 in   Mostly Cloudy
5:54 PM 26.1 °F 14.5 °F 3.9 °F 39% 29.92 in 10.0 mi WNW 13.8 mph 24.2 mph N/A   Scattered Clouds
6:54 PM 26.1 °F 12.0 °F 1.9 °F 35% 29.96 in 10.0 mi NW 20.7 mph 28.8 mph N/A   Overcast
7:54 PM 24.1 °F 11.0 °F 1.9 °F 38% 30.00 in 10.0 mi WNW 16.1 mph 29.9 mph N/A   Mostly Cloudy
8:54 PM 23.0 °F 10.6 °F 3.0 °F 42% 30.03 in 10.0 mi NW 13.8 mph 23.0 mph N/A   Mostly Cloudy
9:54 PM 21.9 °F 8.2 °F 3.9 °F 46% 30.06 in 10.0 mi WNW 16.1 mph 24.2 mph N/A   Partly Cloudy
10:54 PM 21.0 °F 7.6 °F 1.9 °F 44% 30.08 in 10.0 mi NW 15.0 mph 29.9 mph N/A   Clear
11:54 PM 19.9 °F 4.8 °F 1.9 °F 46% 30.10 in 10.0 mi NW 18.4 mph 29.9 mph N/A   Clear